Time,TemperatureF,DewpointF,PressureIn,WindDirection,WindDirectionDegrees,WindSpeedMPH,WindSpeedGustMPH,Humidity,HourlyPrecipIn,Conditions,Clouds,dailyrainin,SoftwareType,DateUTC
2013-11-15 00:00:00,38.2,38.2,19.99,WSW,250,1.0,17.0,100,0.00,,---,0.00,VWS V13.00,2013-11-15 05:00:00,
2013-11-15 00:30:00,37.7,37.7,19.99,West,279,3.0,9.0,100,0.00,,---,0.00,VWS V13.00,2013-11-15 05:30:00,
2013-11-15 01:00:00,38.5,38.5,19.99,West,268,4.0,12.0,100,0.00,,---,0.00,VWS V13.00,2013-11-15 06:00:00,
2013-11-15 01:30:00,38.5,38.5,19.99,WNW,284,0.0,13.0,100,0.00,,---,0.00,VWS V13.00,2013-11-15 06:30:00,
2013-11-15 02:00:00,38.2,38.2,19.99,West,261,1.0,12.0,100,0.00,,---,0.00,VWS V13.00,2013-11-15 07:00:00,
2013-11-15 02:30:00,38.3,38.3,19.99,WNW,293,6.0,9.0,100,0.00,,---,0.00,VWS V13.00,2013-11-15 07:30:00,
2013-11-15 03:00:00,39.3,39.3,19.99,SSW,194,1.0,15.0,100,0.00,,---,0.00,VWS V13.00,2013-11-15 08:00:00,
2013-11-15 04:30:00,39.0,39.0,19.99,West,262,9.0,14.0,100,0.00,,---,0.00,VWS V13.00,2013-11-15 09:30:00,
2013-11-15 05:00:00,38.8,38.8,19.99,WSW,241,8.0,17.0,100,0.00,,---,0.00,VWS V13.00,2013-11-15 10:00:00,
2013-11-15 05:30:00,39.5,39.5,20.00,West,277,8.0,22.0,100,0.00,,---,0.00,VWS V13.00,2013-11-15 10:30:00,
2013-11-15 06:00:00,38.5,38.5,19.99,West,262,5.0,17.0,100,0.00,,---,0.00,VWS V13.00,2013-11-15 11:00:00,
2013-11-15 06:30:00,37.4,37.4,19.99,WSW,258,3.0,11.0,100,0.00,,---,0.00,VWS V13.00,2013-11-15 11:30:00,
2013-11-15 07:00:00,37.1,37.1,19.99,West,266,5.0,9.0,100,0.00,,---,0.00,VWS V13.00,2013-11-15 12:00:00,
2013-11-15 07:30:00,36.7,36.7,20.00,WSW,240,0.0,9.0,100,0.00,,---,0.00,VWS V13.00,2013-11-15 12:30:00,
2013-11-15 08:00:00,36.5,36.5,19.99,WSW,244,0.0,4.0,100,0.00,,---,0.00,VWS V13.00,2013-11-15 13:00:00,
2013-11-15 08:30:00,37.7,37.7,19.99,NW,307,0.0,4.0,100,0.00,,---,0.00,VWS V13.00,2013-11-15 13:30:00,
2013-11-15 09:00:00,39.2,39.2,19.99,NW,308,0.0,3.0,100,0.00,,---,0.00,VWS V13.00,2013-11-15 14:00:00,
2013-11-15 09:30:00,40.7,40.7,19.99,NNW,330,3.0,9.0,100,0.00,,---,0.00,VWS V13.00,2013-11-15 14:30:00,
2013-11-15 10:00:00,41.9,41.9,20.00,SSW,210,5.0,12.0,100,0.00,,---,0.00,VWS V13.00,2013-11-15 15:00:00,
2013-11-15 10:30:00,44.0,44.0,20.00,SW,223,5.0,10.0,100,0.00,,---,0.00,VWS V13.00,2013-11-15 15:30:00,
2013-11-15 11:00:00,45.8,45.8,19.99,SW,235,4.0,11.0,100,0.00,,---,0.00,VWS V13.00,2013-11-15 16:00:00,
2013-11-15 11:30:00,47.8,47.8,19.99,WNW,289,10.0,10.0,100,0.00,,---,0.00,VWS V13.00,2013-11-15 16:30:00,
2013-11-15 12:00:00,49.1,49.1,20.00,West,264,0.0,10.0,100,0.00,,---,0.00,VWS V13.00,2013-11-15 17:00:00,
2013-11-15 12:30:00,48.3,48.3,19.99,NNW,335,0.0,7.0,100,0.00,,---,0.00,VWS V13.00,2013-11-15 17:30:00,
2013-11-15 13:00:00,48.7,48.7,19.99,North,0,2.0,5.0,100,0.00,,---,0.00,VWS V13.00,2013-11-15 18:00:00,
2013-11-15 13:30:00,51.3,51.3,19.99,WNW,295,0.0,5.0,100,0.00,,---,0.00,VWS V13.00,2013-11-15 18:30:00,
2013-11-15 14:00:00,50.6,50.6,20.00,West,267,1.0,7.0,100,0.00,,---,0.00,VWS V13.00,2013-11-15 19:00:00,
2013-11-15 14:30:00,51.9,51.9,19.99,West,267,3.0,4.0,100,0.00,,---,0.00,VWS V13.00,2013-11-15 19:30:00,
2013-11-15 15:00:00,50.9,50.9,19.99,West,265,4.0,10.0,100,0.00,,---,0.00,VWS V13.00,2013-11-15 20:00:00,
2013-11-15 15:30:00,48.8,48.8,19.99,WNW,289,1.0,9.0,100,0.00,,---,0.00,VWS V13.00,2013-11-15 20:30:00,
2013-11-15 16:00:00,46.5,46.5,19.99,West,260,1.0,8.0,100,0.00,,---,0.00,VWS V13.00,2013-11-15 21:00:00,
2013-11-15 16:30:00,44.2,44.2,20.00,West,260,0.0,4.0,100,0.00,,---,0.00,VWS V13.00,2013-11-15 21:30:00,
2013-11-15 17:00:00,43.7,43.7,19.99,West,260,1.0,3.0,100,0.00,,---,0.00,VWS V13.00,2013-11-15 22:00:00,
2013-11-15 17:30:00,42.7,42.7,19.99,West,260,0.0,3.0,100,0.00,,---,0.00,VWS V13.00,2013-11-15 22:30:00,
2013-11-15 18:00:00,42.6,42.6,19.99,West,260,0.0,3.0,100,0.00,,---,0.00,VWS V13.00,2013-11-15 23:00:00,
2013-11-15 18:30:00,42.3,42.3,20.00,West,260,1.0,3.0,100,0.00,,---,0.00,VWS V13.00,2013-11-15 23:30:00,
2013-11-15 19:00:00,42.0,42.0,19.99,West,260,0.0,3.0,100,0.00,,---,0.00,VWS V13.00,2013-11-16 00:00:00,
2013-11-15 19:30:00,41.8,41.8,19.99,West,260,0.0,3.0,100,0.00,,---,0.00,VWS V13.00,2013-11-16 00:30:00,
2013-11-15 20:00:00,42.4,42.4,19.99,West,280,1.0,5.0,100,0.00,,---,0.00,VWS V13.00,2013-11-16 01:00:00,
2013-11-15 20:30:00,42.5,42.5,19.99,NW,324,2.0,6.0,100,0.00,,---,0.00,VWS V13.00,2013-11-16 01:30:00,
2013-11-15 21:00:00,42.3,42.3,19.99,NW,324,0.0,2.0,100,0.00,,---,0.00,VWS V13.00,2013-11-16 02:00:00,
2013-11-15 21:30:00,41.6,41.6,19.99,NW,324,0.0,1.0,100,0.00,,---,0.00,VWS V13.00,2013-11-16 02:30:00,
2013-11-15 22:00:00,41.0,41.0,19.99,NW,324,0.0,2.0,100,0.00,,---,0.00,VWS V13.00,2013-11-16 03:00:00,
2013-11-15 22:30:00,41.4,41.4,20.00,NW,324,0.0,3.0,100,0.00,,---,0.00,VWS V13.00,2013-11-16 03:30:00,
2013-11-15 23:00:00,40.6,40.6,19.99,NW,324,1.0,4.0,100,0.00,,---,0.00,VWS V13.00,2013-11-16 04:00:00,
2013-11-15 23:30:00,40.2,40.2,19.99,NW,313,0.0,5.0,100,0.00,,---,0.00,VWS V13.00,2013-11-16 04:30:00,